| time (UTC) | temp C | wind direction | speed KPH | gust KPH | rain 1hr cm | rain 24hr cm | rain mn cm | humidity % | barometer mb |
| 20260503224004 | 18 | 303 | 4.8 | 16.1 | 0.00 | 0.03 | 0.03 | 43 | 1000.8 |
| 20260503223004 | 18 | 238 | 3.2 | 8.0 | 0.00 | 0.03 | 0.03 | 42 | 1000.5 |
| 20260503222004 | 18 | 232 | 3.2 | 14.5 | 0.03 | 0.03 | 0.03 | 41 | 1000.6 |
| 20260503221004 | 19 | 282 | 4.8 | 14.5 | 0.03 | 0.03 | 0.03 | 41 | 1000.7 |
| 20260503220004 | 20 | 288 | 4.8 | 24.1 | 0.03 | 0.03 | 0.03 | 41 | 1000.7 |
| 20260503215004 | 19 | 337 | 8.0 | 16.1 | 0.03 | 0.03 | 0.03 | 44 | 1000.9 |
| 20260503214004 | 17 | 310 | 4.8 | 11.3 | 0.03 | 0.03 | 0.03 | 51 | 1001.0 |
| 20260503212003 | 17 | 237 | 8.0 | 19.3 | 0.00 | 0.00 | 0.00 | 43 | 1001.3 |
| 20260503211004 | 17 | 310 | 8.0 | 12.9 | 0.00 | 0.00 | 0.00 | 48 | 1001.4 |
| 20260503210005 | 17 | 294 | 3.2 | 20.9 | 0.00 | 0.00 | 0.00 | 51 | 1001.3 |
| 20260503205004 | 16 | 262 | 8.0 | 32.2 | 0.00 | 0.00 | 0.00 | 56 | 1001.7 |
| 20260503204005 | 19 | 286 | 11.3 | 24.1 | 0.00 | 0.00 | 0.00 | 38 | 1001.0 |
| 20260503203004 | 20 | 267 | 8.0 | 27.4 | 0.00 | 0.00 | 0.00 | 37 | 1001.1 |
| 20260503202003 | 20 | 248 | 8.0 | 24.1 | 0.00 | 0.00 | 0.00 | 38 | 1001.1 |
| 20260503201003 | 20 | 261 | 12.9 | 24.1 | 0.00 | 0.00 | 0.00 | 38 | 1001.1 |
| 20260503200003 | 20 | 280 | 4.8 | 25.7 | 0.00 | 0.00 | 0.00 | 38 | 1001.3 |
| 20260503195003 | 20 | 285 | 8.0 | 24.1 | 0.00 | 0.00 | 0.00 | 38 | 1001.5 |
| 20260503194003 | 21 | 247 | 6.4 | 24.1 | 0.00 | 0.00 | 0.00 | 37 | 1001.8 |
| 20260503192004 | 20 | 246 | 6.4 | 29.0 | 0.00 | 0.00 | 0.00 | 37 | 1001.9 |
| 20260503191004 | 20 | 305 | 12.9 | 24.1 | 0.00 | 0.00 | 0.00 | 36 | 1002.1 |
| 20260503185004 | 21 | 270 | 9.7 | 29.0 | 0.00 | 0.00 | 0.00 | 37 | 1002.3 |
| 20260503184003 | 20 | 288 | 4.8 | 24.1 | 0.00 | 0.00 | 0.00 | 38 | 1002.4 |
| 20260503182005 | 19 | 273 | 12.9 | 35.4 | 0.00 | 0.00 | 0.00 | 38 | 1002.9 |
| 20260503181004 | 19 | 302 | 9.7 | 24.1 | 0.00 | 0.00 | 0.00 | 39 | 1002.8 |
| 20260503180004 | 19 | 295 | 11.3 | 27.4 | 0.00 | 0.00 | 0.00 | 40 | 1002.9 |
| 20260503175004 | 19 | 286 | 8.0 | 20.9 | 0.00 | 0.00 | 0.00 | 40 | 1003.2 |
| 20260503174004 | 19 | 224 | 8.0 | 16.1 | 0.00 | 0.00 | 0.00 | 39 | 1003.2 |
| 20260503173003 | 18 | 221 | 4.8 | 25.7 | 0.00 | 0.00 | 0.00 | 41 | 1003.4 |
| 20260503172004 | 18 | 288 | 9.7 | 22.5 | 0.00 | 0.00 | 0.00 | 41 | 1003.7 |
| 20260503171003 | 18 | 241 | 9.7 | 24.1 | 0.00 | 0.00 | 0.00 | 40 | 1003.9 |
| 20260503151004 | 13 | 241 | 6.4 | 25.7 | 0.00 | 0.00 | 0.00 | 56 | 1005.5 |
| 20260503131004 | 9 | 243 | 3.2 | 9.7 | 0.00 | 0.00 | 0.00 | 76 | 1006.9 |
| 20260503081003 | 6 | 332 | 3.2 | 4.8 | 0.00 | 0.00 | 0.00 | 68 | 1008.3 |
| 20260503055004 | 1 | 67 | 0.0 | 3.2 | 0.00 | 0.00 | 0.00 | 90 | 1009.7 |
| 20260503054003 | 1 | 343 | 1.6 | 3.2 | 0.00 | 0.00 | 0.00 | 90 | 1009.7 |
| 20260503053004 | 1 | 5 | 1.6 | 3.2 | 0.00 | 0.00 | 0.00 | 91 | 1010.0 |
| 20260503052004 | 1 | 0 | 1.6 | 1.6 | 0.00 | 0.00 | 0.00 | 90 | 1009.9 |
| 20260503051004 | 1 | 22 | 0.0 | 3.2 | 0.00 | 0.00 | 0.00 | 90 | 1010.0 |
| 20260503050004 | 1 | 29 | 1.6 | 3.2 | 0.00 | 0.00 | 0.00 | 89 | 1009.9 |
| 20260503045004 | 1 | 55 | 0.0 | 4.8 | 0.00 | 0.00 | 0.00 | 89 | 1010.2 |
| 20260503044004 | 1 | 155 | 0.0 | 3.2 | 0.00 | 0.00 | 0.00 | 88 | 1010.2 |
| 20260503043004 | 1 | 38 | 3.2 | 3.2 | 0.00 | 0.00 | 0.00 | 88 | 1010.5 |
| 20260503042004 | 2 | 358 | 1.6 | 8.0 | 0.00 | 0.00 | 0.00 | 87 | 1010.4 |
| 20260503041003 | 2 | 67 | 0.0 | 3.2 | 0.00 | 0.00 | 0.00 | 86 | 1010.4 |
| 20260503040003 | 2 | 53 | 3.2 | 4.8 | 0.00 | 0.00 | 0.00 | 85 | 1010.4 |
| 20260503035004 | 3 | 302 | 1.6 | 1.6 | 0.00 | 0.00 | 0.00 | 83 | 1010.5 |
| 20260503034004 | 3 | 357 | 0.0 | 1.6 | 0.00 | 0.00 | 0.00 | 83 | 1010.4 |
| 20260503033004 | 3 | 37 | 0.0 | 1.6 | 0.00 | 0.00 | 0.00 | 81 | 1010.7 |
| 20260503032005 | 4 | 52 | 0.0 | 3.2 | 0.00 | 0.00 | 0.00 | 79 | 1010.7 |
| 20260503030003 | 5 | 12 | 0.0 | 3.2 | 0.00 | 0.00 | 0.00 | 76 | 1010.9 |
| 20260503025003 | 5 | 63 | 1.6 | 3.2 | 0.00 | 0.00 | 0.00 | 75 | 1011.0 |
| 20260503023004 | 6 | 38 | 1.6 | 3.2 | 0.00 | 0.00 | 0.00 | 72 | 1011.1 |
| 20260503022003 | 6 | 92 | 1.6 | 4.8 | 0.00 | 0.00 | 0.00 | 71 | 1011.1 |
| 20260503021004 | 6 | 52 | 1.6 | 4.8 | 0.00 | 0.00 | 0.00 | 70 | 1011.3 |
| 20260503014004 | 7 | 10 | 1.6 | 8.0 | 0.00 | 0.00 | 0.00 | 66 | 1011.2 |
| 20260503013003 | 7 | 34 | 1.6 | 8.0 | 0.00 | 0.00 | 0.00 | 64 | 1011.2 |
| 20260503012004 | 8 | 85 | 4.8 | 9.7 | 0.00 | 0.00 | 0.00 | 63 | 1011.1 |
| 20260503011004 | 8 | 44 | 0.0 | 8.0 | 0.00 | 0.00 | 0.00 | 62 | 1011.3 |
| 20260503010003 | 9 | 42 | 3.2 | 8.0 | 0.00 | 0.00 | 0.00 | 58 | 1011.3 |
| 20260503005004 | 10 | 90 | 3.2 | 11.3 | 0.00 | 0.00 | 0.00 | 55 | 1011.2 |
| 20260503003004 | 11 | 38 | 3.2 | 8.0 | 0.00 | 0.00 | 0.00 | 46 | 1011.3 |
| 20260503002004 | 13 | 70 | 1.6 | 4.8 | 0.00 | 0.00 | 0.00 | 30 | 1011.0 |
| 20260503001003 | 13 | 318 | 3.2 | 11.3 | 0.00 | 0.00 | 0.00 | 28 | 1011.0 |
| 20260503000004 | 14 | 341 | 4.8 | 14.5 | 0.00 | 0.00 | 0.00 | 28 | 1011.2 |
| 20260502235004 | 15 | 325 | 8.0 | 11.3 | 0.00 | 0.00 | 0.00 | 27 | 1011.1 |
| 20260502234004 | 15 | 323 | 1.6 | 11.3 | 0.00 | 0.00 | 0.00 | 28 | 1011.1 |
| 20260502233004 | 15 | 287 | 3.2 | 9.7 | 0.00 | 0.00 | 0.00 | 27 | 1011.2 |
| 20260502232003 | 15 | 265 | 4.8 | 12.9 | 0.00 | 0.00 | 0.00 | 25 | 1011.3 |
| 20260502231004 | 16 | 351 | 4.8 | 14.5 | 0.00 | 0.00 | 0.00 | 26 | 1011.4 |